Temp
27 26 25 25 26 27 27 28 29 29 29 29 28 27 27 26 26 30 31 31 32 31 32 34 32 33 34 31 30 29 29 29 29 28 28 27 27 27 26 26 26 26 26 27 26 26 25 25 25 24 24 24 24 23 23 22 22 22 22 22 22 22 21 21 21 21 21 21 21 22 21 22 22 21 21 21 22 23 23 24 24 24 24 23 23 23
27 25 26 27 28 28 27 28 28 28 29 29 28 27 26 26 27 30 31 31 32 30 31 33 32 33 34 32 30 29 28 28 29 28 28 28 27 27 27 27 27 26 26 27 26 26 26 25 25 25 24 24 24 23 23 23 22 22 22 22 22 22 22 22 22 22 21 21 22 22 22 22 22 22 22 22 22 22 23 24 24 24 24 23 23 23
25 25 27 28 27 27 27 27 28 28 29 29 28 27 25 27 28 29 30 31 32 30 30 32 31 32 34 32 31 30 29 29 29 29 29 28 28 27 27 27 27 26 26 26 26 26 26 26 25 25 25 24 24 24 23 23 22 22 22 22 22 22 22 22 22 22 22 22 22 22 22 22 22 22 22 22 22 22 23 24 24 24 24 24 24 24
24 26 28 28 27 28 27 27 28 28 28 28 28 25 24 28 27 26 29 31 31 31 31 32 31 32 33 31 30 30 30 30 29 29 29 29 28 28 28 27 27 27 26 26 26 26 26 26 26 25 25 25 24 24 23 23 23 22 22 22 22 22 22 22 22 22 22 22 22 22 22 22 22 22 22 22 22 22 23 24 24 24 24 24 24 24
26 27 28 28 27 28 27 27 27 27 27 28 28 27 26 28 27 26 29 31 31 31 32 31 27 28 32 32 31 31 30 30 29 29 29 29 28 28 28 28 27 27 26 26 26 26 26 26 26 25 25 25 25 24 24 23 23 23 22 22 22 22 22 22 23 22 22 22 22 22 22 22 22 22 22 22 22 22 23 23 24 24 24 24 24 24
28 27 27 27 27 28 27 27 27 27 26 26 28 29 28 29 29 29 30 29 27 26 30 30 23 24 30 31 31 31 29 29 29 29 29 28 28 28 28 28 28 28 27 27 27 26 27 27 26 26 25 25 25 25 24 24 23 23 23 22 22 22 22 22 22 22 22 22 22 22 22 22 22 22 22 22 22 22 23 23 23 24 24 24 24 24
28 27 27 27 27 28 28 27 28 28 26 24 27 29 30 30 29 29 29 27 23 23 29 31 24 23 26 29 31 31 29 29 29 29 29 29 28 28 28 28 28 28 28 27 27 27 27 27 27 26 25 25 25 25 24 24 24 23 23 22 22 22 22 22 22 22 22 22 22 22 22 22 22 23 23 22 22 23 23 24 24 24 24 24 24 24
28 27 27 27 27 27 27 27 28 29 26 24 28 30 29 29 29 29 28 26 25 26 28 30 27 23 23 28 32 31 29 29 29 29 29 29 29 29 29 29 28 28 28 28 27 27 27 27 27 26 26 25 25 25 25 24 24 23 23 23 22 22 22 22 22 22 22 22 22 22 22 22 23 23 23 22 23 23 24 25 24 24 24 24 24 24
28 27 27 27 27 27 27 28 28 29 28 27 29 30 29 30 30 30 28 26 27 26 23 26 28 23 22 27 32 31 29 29 29 29 29 29 29 29 29 29 29 29 28 28 28 27 27 27 27 27 26 26 26 26 25 24 24 23 23 23 23 22 22 22 22 22 22 22 22 22 22 22 23 23 23 23 23 23 23 24 24 24 25 24 24 24
28 28 28 28 27 27 28 29 29 28 29 28 29 30 30 30 30 30 29 26 25 24 21 24 26 23 22 25 29 28 28 30 31 31 30 30 29 29 29 29 29 29 29 29 28 28 28 28 27 27 27 26 26 26 25 25 24 24 23 23 23 22 22 22 22 22 22 22 22 22 22 22 23 23 23 23 23 23 23 23 24 24 24 25 24 24
28 28 29 29 28 29 29 29 29 29 30 29 29 30 29 29 29 29 28 26 23 22 22 24 25 24 22 24 28 28 29 31 33 32 31 30 30 29 29 29 30 29 29 29 29 28 28 28 28 27 27 27 26 26 25 25 25 24 24 23 23 23 22 22 22 22 22 22 22 22 23 23 23 23 23 23 23 23 23 23 23 24 24 24 24 24
28 27 28 28 29 30 29 28 28 29 30 29 30 29 26 25 26 25 24 24 22 21 23 25 26 25 22 24 29 32 33 33 33 34 33 31 30 30 30 30 30 30 29 29 29 29 28 28 28 28 27 27 26 26 26 26 25 25 24 24 23 23 22 22 22 22 22 22 22 22 23 23 23 23 23 23 23 23 23 23 23 23 24 24 24 24
27 28 28 28 29 30 29 27 27 28 29 29 29 26 23 22 22 22 22 22 22 22 24 26 26 24 23 26 31 33 34 33 34 35 34 33 31 30 30 30 30 30 30 29 29 29 28 28 28 28 27 27 27 26 26 26 26 25 24 24 23 23 23 22 22 22 22 22 22 22 23 23 23 23 23 23 23 23 23 23 23 23 23 23 24 24
24 27 28 28 28 29 29 27 25 25 27 28 27 24 22 21 21 21 21 22 22 22 24 26 26 23 23 28 33 33 33 34 34 34 35 34 33 31 31 31 30 30 30 30 29 29 29 28 28 28 28 27 27 26 26 26 26 25 25 24 24 23 23 23 22 22 22 22 22 22 23 23 23 23 23 23 23 23 23 23 23 23 24 24 24 24
22 23 26 28 28 29 30 29 28 27 27 28 29 27 23 22 22 22 22 21 22 22 23 25 24 22 23 28 32 34 34 35 34 34 34 34 33 33 32 31 31 31 30 30 30 29 29 29 28 28 28 27 27 27 27 26 26 25 25 24 24 24 23 23 23 23 22 22 22 23 23 23 23 23 23 23 23 23 23 24 24 23 24 24 24 25
22 23 27 29 29 29 29 30 31 29 26 28 30 27 24 25 24 22 22 22 22 22 22 23 23 25 27 29 32 33 33 35 35 34 34 33 33 33 32 32 31 31 31 30 30 30 29 29 29 29 28 28 27 27 27 26 26 26 25 25 24 24 24 23 23 23 23 23 23 23 23 23 23 23 23 23 23 24 24 24 24 24 24 24 24 24
22 23 28 29 28 30 30 30 31 29 26 27 27 25 26 30 28 23 21 23 22 22 22 22 23 26 28 30 33 33 32 33 33 34 34 34 33 33 32 32 32 31 31 31 30 30 30 29 29 29 29 29 28 28 27 27 26 26 26 25 25 24 24 24 23 23 23 23 23 23 23 23 23 23 23 23 23 23 23 23 24 24 24 24 24 24
24 23 27 28 28 29 31 30 30 30 29 26 24 26 29 30 29 25 22 22 22 22 22 22 22 24 24 26 31 33 33 33 33 33 34 34 33 33 32 32 32 32 32 31 31 30 30 30 29 29 29 29 29 28 27 27 26 26 26 25 25 24 24 24 24 23 23 23 23 23 23 23 23 23 23 23 23 23 23 23 23 23 24 24 24 24
26 23 25 30 29 28 30 30 28 29 31 29 28 30 29 25 24 24 22 22 22 22 22 22 22 23 23 25 29 32 32 33 33 33 33 34 34 33 33 33 32 32 32 31 31 30 30 30 30 30 30 30 29 28 28 27 27 26 26 26 25 25 25 24 24 24 23 23 23 23 23 23 23 23 23 23 23 23 23 23 23 23 23 24 24 24
27 24 23 28 30 28 29 28 25 26 29 29 29 30 29 26 24 23 23 23 22 22 22 22 22 23 25 29 32 33 34 34 34 33 33 33 34 34 34 33 32 32 31 31 31 31 31 30 31 31 30 30 30 29 28 28 28 27 27 26 26 25 25 25 24 24 23 23 23 23 23 23 23 23 23 23 23 23 23 23 23 23 24 24 24 24
27 25 22 26 29 27 26 27 27 27 27 27 26 26 27 27 26 25 24 24 23 22 22 22 22 23 27 32 34 34 35 34 34 33 33 33 34 34 34 34 33 32 31 31 32 31 31 31 31 31 31 30 30 30 29 29 28 28 28 27 26 26 25 25 25 24 24 24 23 23 23 23 23 23 23 23 23 23 23 23 23 24 24 24 24 24
24 25 23 23 25 24 26 29 31 31 30 29 27 26 26 26 25 24 23 23 24 23 22 22 22 23 29 32 33 34 35 35 35 34 33 33 34 34 34 34 33 32 32 32 32 32 32 31 31 32 31 31 31 30 30 30 29 28 28 28 27 27 26 26 25 24 24 24 24 23 23 23 23 23 23 23 23 23 23 23 23 23 24 23 24 24
22 23 23 23 24 26 28 30 30 31 31 31 30 30 30 28 25 22 22 23 23 23 23 23 21 25 31 33 32 34 35 35 35 34 34 34 34 34 34 34 33 32 32 32 32 32 32 32 31 32 31 30 30 30 30 30 29 29 29 28 28 27 27 27 26 25 24 24 24 24 24 24 23 23 23 23 23 23 23 23 23 23 24 23 23 24
21 22 22 22 24 27 29 30 30 30 30 29 30 31 31 29 28 27 25 24 23 22 23 23 21 25 31 32 31 33 33 33 34 33 33 34 34 34 33 33 33 32 32 32 32 32 32 32 31 31 30 30 30 30 30 30 29 29 29 28 28 28 27 27 27 26 25 24 24 24 24 24 24 23 23 24 24 24 24 24 23 23 23 23 23 23
21 21 22 22 22 23 25 27 27 27 28 28 29 31 31 30 30 30 27 25 24 23 23 23 21 25 30 30 29 31 31 32 33 32 32 32 32 33 32 32 32 31 31 31 31 31 32 31 31 30 30 30 29 30 30 29 29 29 29 29 29 28 28 27 27 26 25 25 25 24 24 24 24 24 24 24 24 24 24 24 24 23 23 23 23 23
20 21 21 21 21 21 22 22 22 23 25 26 27 29 30 30 30 28 25 23 22 23 24 23 22 26 31 32 30 31 31 32 34 33 31 30 31 31 31 31 31 31 30 30 31 31 31 31 31 30 30 29 29 30 30 29 29 29 29 29 29 29 28 28 27 27 26 26 25 25 24 24 24 24 24 24 24 24 24 24 24 24 23 23 23 23
20 20 20 20 21 21 20 20 21 22 22 23 25 26 28 29 30 28 25 22 23 23 23 24 25 26 29 32 33 33 32 32 34 34 32 31 32 31 30 29 29 29 29 29 30 30 30 30 30 30 29 29 30 30 30 29 30 29 29 29 29 29 28 28 27 26 26 26 26 25 24 24 24 24 24 24 24 24 24 24 24 24 24 23 23 23
20 20 20 20 20 20 20 21 22 22 21 22 23 24 25 28 29 27 24 24 25 23 22 25 27 25 27 32 34 34 34 33 32 33 33 33 33 31 30 29 29 29 29 29 29 29 30 30 30 30 29 29 30 30 30 30 29 29 29 29 29 29 28 27 27 26 26 26 26 25 24 24 24 24 24 24 24 24 24 24 24 24 24 24 23 24
19 20 20 20 20 20 21 22 22 22 21 22 23 23 24 25 26 26 25 27 27 24 23 27 27 26 29 33 33 34 35 35 35 35 34 33 32 32 31 32 32 32 31 30 29 29 29 29 29 29 29 29 29 30 30 30 29 29 29 29 28 29 28 28 27 27 26 26 25 25 25 25 24 24 24 24 23 24 24 24 24 24 24 24 24 24
19 19 20 19 20 20 21 22 22 22 22 22 22 23 24 24 25 25 26 29 29 27 27 29 28 27 31 33 33 35 35 35 34 33 32 32 33 33 33 34 34 34 34 33 32 29 29 29 29 29 29 29 29 29 30 30 29 29 29 29 28 28 28 28 27 27 26 26 26 25 25 25 24 24 24 24 24 24 24 24 24 23 23 23 23 23
18 19 19 19 20 20 21 22 22 22 22 22 22 23 24 24 25 25 26 28 28 27 29 30 27 27 31 33 33 34 33 31 31 32 32 33 33 33 33 34 35 35 34 33 32 29 28 28 28 29 29 29 29 29 29 29 29 29 29 29 29 28 28 28 27 27 26 26 26 26 25 25 24 24 24 24 24 24 23 23 23 23 23 23 23 23
18 18 19 19 19 20 21 21 21 22 22 22 22 24 25 24 25 26 26 28 27 26 27 27 25 27 31 31 31 31 30 30 31 32 34 34 33 33 34 35 36 35 33 31 29 29 28 28 28 28 29 29 29 29 29 29 29 29 29 29 29 29 28 28 27 27 27 26 26 26 25 25 25 24 24 24 24 24 23 23 23 23 23 23 23 23
17 18 18 19 19 20 21 21 21 21 21 22 23 24 26 26 27 27 27 28 29 29 27 26 26 30 31 31 31 32 31 31 32 32 33 33 33 32 33 34 35 34 31 28 28 28 28 28 29 29 29 29 30 29 29 29 29 29 29 29 29 29 28 28 28 27 27 26 26 26 25 25 25 24 24 24 24 24 23 23 23 23 23 23 23 23
16 17 18 19 18 19 21 21 21 21 21 22 23 24 25 26 26 27 28 29 30 30 29 29 31 32 32 31 31 32 33 33 33 33 32 32 32 32 32 33 32 30 28 27 27 27 27 27 28 29 29 29 30 30 29 29 29 29 29 29 29 28 28 28 28 27 27 26 26 26 25 25 25 24 24 24 24 24 23 23 23 23 23 23 23 23
16 16 17 18 18 19 20 20 20 20 21 23 24 24 23 24 24 25 27 29 30 30 30 31 31 31 32 31 31 32 33 32 31 30 29 28 28 30 31 31 29 28 26 26 26 26 25 25 26 28 29 29 30 30 29 29 29 29 29 29 28 28 28 28 27 27 27 26 26 26 25 25 25 25 24 24 24 24 24 23 23 23 23 23 23 23
16 16 17 18 18 19 19 20 20 20 22 24 24 23 23 23 23 23 25 28 29 29 30 30 31 32 32 31 31 31 31 29 27 26 26 26 25 26 28 28 27 26 25 25 24 24 24 24 25 26 28 29 29 29 29 29 29 29 29 28 28 28 28 27 27 27 27 26 26 26 25 25 25 25 24 24 24 24 24 24 23 23 23 23 24 24
16 16 17 17 18 19 19 20 21 21 21 23 24 23 22 22 22 22 23 25 26 25 26 27 29 31 32 31 30 29 28 28 28 27 26 25 24 24 25 25 25 24 24 24 23 23 24 24 24 25 27 28 29 29 29 29 29 29 28 28 28 27 27 27 27 27 27 26 26 26 25 25 25 25 24 24 24 24 24 24 24 23 23 23 24 24
16 16 17 17 18 19 19 19 20 20 21 22 22 22 21 21 21 21 21 23 23 22 22 23 25 27 29 30 29 28 27 28 30 30 28 25 24 24 23 23 23 23 23 23 23 24 24 24 24 25 26 28 28 28 29 29 29 28 28 27 27 27 27 27 27 27 27 26 26 26 26 25 25 25 24 24 24 24 24 24 24 24 23 23 24 24
16 16 17 17 18 19 19 19 19 20 21 22 22 21 22 22 21 21 22 22 22 21 20 21 22 23 25 27 27 27 28 29 31 32 28 25 24 24 23 23 23 23 23 22 22 23 23 24 25 26 26 27 27 27 28 28 28 28 28 27 27 27 27 27 27 27 27 26 26 26 26 26 25 25 25 25 24 24 24 24 24 24 24 24 24 24
15 15 15 15 16 18 18 19 20 20 22 23 22 21 22 22 21 21 22 22 21 20 20 21 21 22 23 24 25 27 29 31 32 31 27 24 23 23 22 22 22 21 22 22 22 22 23 23 23 24 24 24 24 25 26 27 28 28 27 27 27 27 28 27 27 27 27 26 26 26 26 25 25 25 25 25 25 24 24 24 24 24 24 24 24 24
15 15 15 15 16 17 17 19 20 21 22 23 22 21 22 22 21 22 22 20 19 20 20 20 20 21 22 22 23 26 27 27 27 26 24 23 23 21 21 21 20 20 21 21 21 22 22 22 22 22 22 22 22 24 25 26 27 28 27 27 27 27 27 27 27 27 27 27 26 26 26 25 25 25 25 25 25 24 24 24 24 24 24 24 24 24
14 15 15 15 15 17 18 18 19 20 22 23 22 21 22 22 22 21 20 19 19 20 20 19 19 20 21 22 23 25 24 23 23 23 23 22 21 21 20 20 20 20 21 20 20 21 22 22 22 21 21 21 22 24 25 26 27 27 27 27 27 27 27 27 27 27 27 26 26 26 26 26 25 25 25 25 25 25 24 24 25 24 24 24 24 24
14 14 15 15 16 16 17 17 18 19 21 22 22 21 22 22 21 20 19 19 20 19 19 18 19 19 20 21 23 23 23 23 22 22 21 21 20 20 20 20 20 20 20 20 20 21 21 21 21 20 20 21 21 22 24 26 26 26 26 26 25 25 26 26 26 26 26 26 26 26 26 26 25 25 25 25 25 25 25 24 24 24 24 24 24 24
14 14 14 16 17 16 16 17 18 18 20 21 22 22 22 21 20 19 19 20 19 19 18 18 18 18 19 20 22 22 21 21 20 20 20 20 20 20 20 20 20 20 20 20 20 20 21 21 20 20 19 20 20 20 22 24 25 24 24 23 22 23 25 25 26 26 26 26 26 26 26 26 26 25 25 25 25 25 25 25 24 24 24 24 24 24
14 14 13 14 15 15 16 17 17 18 18 19 21 22 20 19 19 18 19 19 19 18 18 17 17 18 18 19 20 20 20 19 19 20 20 20 20 20 20 20 20 20 20 20 20 20 20 20 20 19 19 19 19 19 20 21 22 22 21 21 21 22 23 23 24 25 25 26 26 26 26 26 25 25 25 25 25 25 25 25 25 24 24 24 24 25
14 14 13 13 13 14 15 17 17 17 18 19 20 20 20 19 19 19 18 18 18 17 17 17 17 17 17 18 19 19 19 19 19 20 20 20 20 20 20 20 20 20 21 21 20 20 20 20 20 20 19 19 19 19 19 20 20 20 20 20 21 21 21 23 24 24 25 25 25 25 25 26 26 26 25 25 25 25 25 25 25 25 25 25 25 25
14 13 12 12 13 13 14 16 17 17 18 19 19 19 19 19 18 18 18 18 17 17 17 17 17 17 17 18 19 19 19 19 19 19 19 20 19 20 20 20 20 20 20 20 20 20 20 20 20 20 20 19 19 20 19 19 19 19 19 20 20 21 21 22 23 24 24 24 25 25 25 25 26 26 26 25 25 25 25 25 25 25 25 25 25 25
14 13 12 12 12 12 13 15 16 15 16 18 18 18 19 18 18 18 18 17 17 17 18 18 17 17 17 17 18 18 19 19 19 19 19 19 19 20 20 20 20 20 20 20 20 20 20 20 20 20 20 20 20 20 20 20 19 19 19 20 20 21 21 21 22 23 23 23 23 24 24 24 25 25 25 26 26 26 26 26 26 26 26 25 25 25
13 12 12 12 12 12 13 14 15 14 15 17 17 18 18 18 18 17 17 17 17 17 17 18 18 18 17 17 17 18 18 18 19 19 19 19 19 19 20 20 20 20 20 20 20 20 20 20 20 20 19 19 20 20 20 19 20 20 19 20 20 21 21 21 21 22 22 21 21 21 21 22 22 23 23 24 24 25 25 25 25 26 26 26 26 25
12 11 12 12 11 11 12 14 15 15 15 16 17 18 18 18 18 17 17 17 17 16 17 17 17 17 17 17 17 17 17 18 18 19 19 19 19 19 19 20 20 20 20 20 20 20 20 20 20 19 19 19 20 20 20 19 20 20 19 19 20 20 20 20 20 21 21 21 20 20 20 20 20 21 21 22 22 22 22 23 24 24 24 24 24 24
11 12 12 12 11 12 14 15 15 15 14 15 17 17 17 18 17 17 16 16 16 16 16 16 16 17 17 17 16 16 16 16 17 18 18 18 18 18 19 19 20 20 20 20 20 20 20 20 20 20 20 20 20 20 20 20 20 20 19 19 19 19 20 20 20 20 20 20 19 19 20 20 20 20 21 21 21 21 20 21 22 23 23 23 23 23
Height
749 759 761 757 755 755 756 756 757 758 758 761 766 769 769 770 766 758 757 751 748 758 755 749 752 749 745 747 747 747 748 751 753 755 756 756 756 757 758 759 759 760 761 762 767 770 773 776 779 782 784 787 790 792 794 796 798 800 802 805 806 808 811 813 816 818 820 822 824 826 827 829 830 832 833 834 835 836 838 839 840 842 843 845 846 847
750 756 751 747 749 750 754 755 756 759 760 762 765 768 768 768 764 757 756 752 747 758 757 748 752 748 742 744 743 744 749 751 750 752 754 752 753 753 754 756 756 758 759 761 765 767 770 773 776 779 782 785 787 788 791 793 795 797 799 801 803 805 808 810 812 814 816 818 820 822 824 826 828 830 831 832 833 835 836 837 839 840 842 843 844 846
755 750 742 741 745 749 753 754 757 760 761 763 763 767 768 762 761 758 754 751 749 757 757 750 752 748 739 739 740 741 743 744 741 742 744 746 749 750 750 752 753 757 759 759 761 763 766 769 772 777 779 781 784 786 788 790 792 794 796 798 800 802 804 806 808 810 813 815 818 820 822 825 827 828 829 831 832 833 835 836 838 839 840 842 843 844
755 744 736 738 744 750 755 755 758 761 761 762 761 766 764 757 763 764 757 753 750 752 754 752 752 746 739 740 740 738 737 737 737 737 738 741 745 746 745 747 751 754 756 757 759 760 763 766 769 772 775 778 781 783 785 786 788 790 792 794 797 799 800 803 805 807 811 814 817 820 822 823 825 827 828 829 831 832 833 834 836 837 838 840 841 843
744 736 730 736 743 748 754 756 758 761 762 759 756 759 758 755 761 762 757 755 751 750 749 753 759 749 740 743 740 735 736 737 737 738 740 740 740 742 744 746 748 750 752 754 756 757 759 761 764 767 771 774 776 778 780 782 784 786 788 790 792 795 797 799 801 805 809 812 816 818 821 823 824 825 826 827 829 830 831 832 834 835 837 838 840 841
735 731 730 738 743 744 751 754 753 756 759 758 752 750 752 754 758 760 760 759 763 764 751 754 773 762 741 742 741 737 739 739 738 739 741 741 739 741 744 744 744 746 748 750 751 753 755 758 762 765 767 770 771 773 775 778 780 782 784 787 789 791 793 796 799 803 806 809 812 815 817 818 820 821 822 823 825 827 828 830 832 833 835 837 838 839
729 729 731 738 741 742 748 749 747 749 757 759 748 744 749 753 757 760 761 765 774 773 754 752 774 770 749 742 739 738 742 740 738 739 739 739 739 739 740 741 741 742 744 747 749 750 752 754 758 760 762 765 766 769 772 775 777 779 781 784 786 788 791 793 797 800 803 806 808 810 812 813 815 816 818 820 822 824 826 828 830 831 833 835 836 837
723 730 734 737 740 743 745 745 742 743 754 755 742 741 750 753 757 759 761 767 767 763 757 751 762 772 759 741 732 735 742 743 740 739 737 735 735 736 736 737 737 738 739 742 745 746 748 750 751 754 756 758 761 765 769 772 774 776 778 780 783 786 788 791 794 797 800 802 804 806 808 810 811 813 815 817 819 822 824 826 828 829 831 832 834 835
717 728 731 733 740 742 738 735 735 739 748 748 738 740 746 749 753 754 758 763 760 765 771 755 755 774 764 736 730 735 741 744 739 735 733 730 731 732 733 733 733 734 735 736 739 741 742 744 746 749 752 755 759 763 765 767 770 772 775 778 780 783 786 788 791 794 797 798 800 803 805 806 808 811 813 815 817 819 821 823 825 827 828 830 831 833
715 717 718 726 735 735 730 728 730 736 742 740 737 740 744 747 749 752 757 759 764 775 776 758 754 772 763 734 732 741 739 737 731 726 726 724 725 727 727 728 728 730 732 732 734 735 737 739 742 746 749 753 756 759 762 764 767 771 773 776 778 780 782 785 788 791 793 796 798 800 801 803 805 808 811 813 815 817 818 820 822 824 825 827 828 830
713 710 712 719 724 722 723 727 727 731 735 735 739 743 748 750 751 756 756 759 775 779 766 753 750 765 765 734 724 733 728 722 721 720 720 719 720 722 721 722 722 724 726 727 730 731 733 736 739 744 747 749 753 756 759 762 764 768 770 773 776 778 780 783 785 787 790 793 794 796 798 799 802 805 807 810 811 813 815 817 819 821 822 824 826 827
715 717 717 714 713 714 721 729 729 728 730 735 741 747 756 761 761 765 765 769 784 777 755 745 744 760 765 735 713 714 709 708 712 712 714 715 716 716 715 715 715 717 719 721 725 727 729 733 736 740 742 744 749 752 754 758 761 764 767 770 773 775 778 780 782 785 787 790 791 793 795 796 799 802 804 806 807 809 811 813 816 818 819 821 823 825
717 717 716 713 709 710 721 731 734 733 732 736 741 749 766 776 778 781 780 777 778 768 750 742 745 754 747 723 711 708 704 703 703 700 702 705 708 709 709 709 709 710 712 715 718 721 724 727 729 732 736 739 743 745 749 753 756 759 762 765 768 771 774 777 779 782 784 786 788 789 791 794 796 799 800 802 804 806 808 810 812 814 816 818 819 821
727 720 714 716 713 706 714 726 735 739 735 736 739 748 764 776 786 790 783 778 773 761 748 741 750 752 733 713 705 702 700 697 694 693 693 694 698 701 701 702 703 705 707 709 711 714 717 719 722 725 729 733 736 739 743 747 751 754 757 760 763 766 769 772 775 778 780 782 784 786 788 791 793 795 797 799 801 803 805 807 809 810 812 814 815 817
730 728 713 711 709 703 707 712 718 727 732 731 729 737 750 755 768 775 772 773 768 758 753 752 753 745 729 713 697 691 690 686 686 686 685 687 689 691 693 696 700 701 701 703 705 708 709 711 714 718 722 726 730 734 738 742 745 748 751 754 757 761 765 768 771 774 776 778 780 782 785 787 789 791 793 796 797 799 801 803 805 807 809 810 812 814
720 717 697 694 696 696 704 704 702 718 733 729 722 734 743 735 741 754 757 756 756 758 759 756 744 723 711 704 692 690 690 684 684 684 683 687 685 687 692 694 696 696 696 698 700 702 704 705 709 713 716 720 724 729 733 735 739 741 745 748 752 756 759 763 766 769 771 774 776 778 781 783 786 788 790 792 794 795 797 799 802 804 805 807 809 811
718 711 693 694 697 692 696 698 699 711 725 728 729 734 729 719 727 747 755 751 754 763 756 745 736 717 708 703 689 689 693 689 688 685 684 684 683 687 691 690 690 690 690 692 693 694 697 700 704 707 711 714 718 722 726 728 731 734 739 743 747 751 755 758 761 764 767 770 772 774 777 780 782 784 787 788 790 792 795 797 799 801 803 804 806 808
707 709 695 695 702 694 686 693 698 698 706 723 732 723 716 721 728 739 756 758 760 765 751 739 736 724 721 715 694 689 695 691 688 686 683 681 681 686 686 684 684 683 684 686 686 688 692 695 699 702 705 708 711 714 717 720 724 729 734 738 742 746 749 752 755 759 763 766 769 771 773 776 778 780 783 785 787 789 792 794 795 798 800 801 803 805
696 707 700 689 694 695 687 696 708 702 697 708 713 706 714 736 741 742 755 759 760 764 751 740 736 724 718 711 697 694 695 689 685 684 682 680 679 680 680 679 679 679 681 682 683 685 687 689 691 694 698 701 704 708 710 715 721 725 730 733 737 740 742 746 751 755 759 761 764 767 769 772 774 777 779 781 784 786 788 790 792 794 796 797 800 802
692 705 707 690 686 693 694 701 712 711 705 703 705 704 709 722 730 735 740 741 748 757 751 744 738 720 703 694 693 693 689 685 684 683 682 678 674 673 673 673 674 676 677 677 678 680 680 682 684 687 691 694 698 702 705 711 717 720 724 728 732 736 739 744 747 750 753 756 759 762 765 768 770 773 776 778 780 782 784 786 788 790 792 794 796 798
692 701 709 698 690 696 701 700 700 703 706 708 712 714 714 715 718 725 728 725 732 746 748 747 738 712 689 682 683 683 680 679 679 679 679 675 670 667 666 666 668 670 671 671 672 673 674 676 678 681 686 690 694 698 702 708 712 715 719 723 726 731 735 739 742 744 747 750 754 757 760 763 766 769 772 774 776 778 780 782 784 786 788 790 792 794
700 701 705 702 699 700 698 689 684 686 691 697 703 706 708 712 717 731 737 725 720 729 734 739 735 706 681 676 676 674 673 671 669 672 673 670 667 664 661 661 663 665 666 666 666 668 670 672 674 678 682 687 692 695 699 704 707 710 714 716 720 725 729 732 735 738 741 745 748 751 754 758 761 764 767 769 772 774 776 778 780 782 784 786 787 789
707 707 705 702 698 694 689 682 678 679 680 683 689 692 695 701 709 725 734 724 720 724 720 726 732 705 674 670 672 669 667 665 664 667 668 665 662 661 659 658 660 662 663 663 664 666 667 669 671 675 680 684 687 690 694 699 702 705 707 711 715 718 721 725 729 732 735 739 742 745 750 753 756 759 762 765 767 769 771 774 775 777 779 781 783 785
708 711 709 706 699 691 685 680 679 680 684 687 687 685 688 693 695 701 709 711 717 722 720 729 733 705 674 669 670 666 666 665 664 665 666 665 661 659 659 659 659 661 662 662 663 664 665 667 670 674 676 678 681 685 689 692 695 699 702 706 709 711 714 719 723 727 730 733 737 741 745 748 751 754 756 759 762 764 767 769 771 772 774 777 779 781
712 713 710 712 716 713 704 697 691 687 689 692 689 684 685 687 689 692 700 711 715 711 712 723 724 699 677 673 673 671 670 668 665 664 664 664 661 660 660 659 659 660 661 662 662 662 664 665 667 669 670 672 675 679 683 686 690 693 697 700 703 706 710 714 718 721 724 728 733 737 740 742 745 748 750 754 756 759 762 765 766 768 770 772 774 776
715 716 713 713 717 719 718 714 707 700 698 696 691 687 684 685 689 692 702 717 719 708 702 708 707 692 677 675 675 673 673 670 665 661 663 664 662 660 659 659 658 659 660 661 661 661 662 662 663 664 665 667 670 673 677 681 684 688 691 694 697 701 705 709 713 716 719 724 729 731 734 736 739 742 745 748 751 754 757 760 762 763 765 767 769 771
716 718 718 718 715 715 720 720 714 711 711 706 699 695 690 686 686 689 699 709 710 709 704 695 693 692 683 677 675 672 672 671 665 662 663 663 660 658 659 659 659 658 659 659 659 660 660 661 661 661 661 663 665 668 672 675 678 682 685 688 692 697 701 705 708 711 715 719 723 725 727 729 732 736 739 742 745 748 751 754 756 758 759 761 763 766
719 721 720 722 721 720 720 717 713 714 716 712 707 702 696 691 688 688 695 695 695 707 706 688 687 695 688 678 675 670 669 670 667 664 661 659 658 657 658 659 659 657 657 657 658 658 658 658 658 657 658 659 661 665 668 671 673 676 679 683 687 691 695 699 702 706 710 714 717 719 720 723 727 730 734 737 739 743 746 748 750 752 754 756 758 761
724 724 721 722 722 719 715 711 710 713 715 712 709 706 699 697 695 692 691 686 686 697 695 684 688 693 683 676 673 668 665 664 661 659 657 657 656 656 656 657 656 655 654 655 655 655 655 655 654 654 654 655 658 661 663 666 669 672 676 679 682 686 689 692 696 700 705 708 710 711 714 719 723 726 730 732 734 737 740 743 745 747 749 751 753 756
725 724 722 723 723 718 713 709 708 711 713 710 708 704 700 698 696 694 691 684 681 684 680 678 686 684 672 668 666 660 659 659 658 658 658 657 655 654 655 655 653 652 651 650 650 651 651 651 650 651 652 653 655 656 658 661 663 667 670 673 677 681 683 687 691 695 700 701 702 705 711 715 719 722 725 727 729 732 735 738 740 742 744 746 749 751
727 726 724 723 723 719 712 708 707 709 711 710 705 699 697 696 694 692 690 685 683 684 678 677 684 680 665 660 659 658 659 662 662 661 658 655 654 654 655 653 651 650 649 648 648 649 649 649 649 649 649 650 650 651 653 655 658 662 665 669 672 675 678 682 686 690 693 693 696 703 708 711 714 717 719 722 724 727 730 733 736 738 740 742 745 747
730 728 725 725 728 721 711 710 711 706 703 703 698 692 690 690 688 685 683 681 681 684 683 683 685 678 665 660 661 661 662 665 663 659 655 653 653 653 653 651 649 648 648 649 649 648 648 647 646 646 645 644 644 647 649 650 654 657 660 663 666 670 674 678 681 684 686 689 694 700 703 706 709 712 714 717 719 722 725 729 731 733 736 738 740 742
734 732 728 728 731 723 713 712 711 708 708 701 689 683 680 678 677 676 675 674 672 675 679 681 677 667 660 661 663 661 661 661 658 654 652 651 651 651 651 648 646 645 646 648 648 647 645 644 642 641 640 639 639 640 642 646 651 652 654 657 661 666 671 673 675 679 681 685 691 694 697 701 704 706 709 711 714 718 721 724 726 728 730 733 735 738
735 735 730 728 731 727 716 711 713 716 713 697 681 678 678 675 675 673 670 668 666 665 667 666 662 657 656 659 661 659 655 651 649 647 646 646 648 648 646 645 644 644 645 645 644 643 642 640 638 637 635 635 635 636 640 644 647 649 652 656 660 664 667 669 672 674 677 681 685 688 692 696 698 701 703 706 710 714 716 719 721 723 726 729 732 734
736 736 732 728 730 726 715 716 724 720 703 683 674 676 675 674 676 674 667 662 660 659 659 660 659 655 653 654 654 651 648 645 645 646 645 645 646 646 644 643 643 644 644 643 642 640 639 637 636 634 632 632 634 636 639 641 642 646 651 655 658 661 664 667 669 672 675 679 682 685 689 691 694 697 700 703 707 709 712 714 717 719 722 724 727 730
736 736 732 727 726 724 722 723 722 708 688 674 672 674 674 675 677 676 671 663 658 658 657 657 655 650 649 650 648 646 646 647 649 649 647 645 645 645 644 642 641 642 642 640 639 638 636 634 633 631 630 630 632 634 635 637 640 644 647 651 655 658 660 664 666 669 673 676 679 683 686 689 692 695 697 700 703 705 708 710 712 714 717 720 722 724
732 733 732 729 724 722 723 718 706 699 692 681 676 678 679 680 680 682 681 671 663 663 663 659 655 649 645 645 646 646 647 650 653 650 645 644 644 643 642 641 640 640 639 637 636 634 633 631 630 629 628 628 629 631 632 635 638 641 645 648 651 654 657 660 663 665 668 671 675 679 682 685 688 691 693 697 698 700 702 704 706 709 712 714 716 717
727 728 728 729 721 716 720 717 709 709 703 687 679 679 678 678 679 683 687 680 669 668 669 666 662 656 650 648 648 648 651 656 656 648 641 642 642 641 642 640 638 638 637 636 635 632 630 629 627 627 627 626 627 629 630 634 636 639 642 645 648 651 655 657 658 660 663 667 670 674 677 679 682 686 689 691 692 694 696 699 701 704 705 707 709 710
726 725 725 727 721 714 717 717 711 708 695 680 677 678 674 674 676 679 685 681 671 671 671 668 667 663 658 655 653 652 655 660 654 641 635 638 640 640 641 640 638 637 636 636 635 632 630 628 627 626 626 626 627 628 630 632 635 638 640 643 646 649 651 653 654 657 661 664 667 669 671 674 677 680 683 685 686 689 692 694 696 698 700 703 704 705
727 728 728 730 724 716 714 710 702 695 684 674 676 677 672 671 675 683 687 679 672 673 671 668 668 665 660 659 656 653 652 651 645 634 631 636 639 640 642 641 640 639 637 636 636 633 631 630 629 627 627 627 628 629 630 632 634 636 639 641 645 647 649 651 653 656 659 662 665 667 669 672 674 676 678 680 682 685 688 689 692 695 697 699 701 702
726 727 727 727 722 717 715 709 698 687 675 670 673 673 670 672 680 686 684 676 672 672 669 667 668 664 660 660 658 652 646 642 639 634 632 636 639 641 642 642 641 640 639 638 637 634 633 632 631 630 630 630 630 630 631 632 634 636 638 641 644 646 647 650 652 654 657 659 662 664 667 669 671 672 674 677 679 683 685 686 689 691 692 693 695 697
726 724 724 724 721 715 711 706 701 689 671 664 670 671 669 677 683 679 674 672 671 668 666 668 667 663 659 657 654 650 645 643 642 639 637 639 641 643 643 642 642 641 640 639 638 636 635 634 633 633 632 632 632 631 632 633 635 636 639 641 643 645 647 649 651 653 655 657 659 661 663 665 667 669 671 674 676 678 680 682 685 687 688 689 691 692
726 723 719 716 715 715 713 710 709 698 674 662 669 673 671 674 675 671 670 669 667 665 666 668 665 662 660 655 650 648 646 645 645 644 643 643 643 644 644 644 643 643 641 640 640 637 636 635 635 635 635 634 634 633 633 634 636 637 639 642 644 646 647 649 651 653 654 656 657 659 661 662 664 666 668 670 671 673 675 678 680 682 683 685 687 688
722 722 718 710 705 709 711 704 699 691 675 665 666 667 667 667 667 669 670 667 664 665 666 667 665 662 660 655 650 648 648 649 649 649 649 647 645 645 645 645 644 644 642 642 641 638 636 636 636 637 638 637 637 637 636 637 637 639 641 643 645 646 647 648 650 651 653 654 655 657 659 660 662 664 665 667 668 670 672 674 676 678 680 681 683 684
717 718 721 718 710 707 703 694 688 683 678 672 666 661 662 665 665 667 667 665 664 665 665 666 666 662 659 656 652 651 652 651 650 650 650 650 648 647 646 646 645 644 643 642 641 639 638 638 638 639 639 639 640 640 640 640 641 642 643 645 646 646 647 648 648 649 651 652 654 655 657 658 660 661 663 665 666 668 670 672 674 675 677 678 680 681
713 715 719 719 715 708 699 690 687 685 680 676 671 665 663 665 665 665 666 665 664 664 664 666 665 662 660 657 653 653 654 652 650 649 649 650 650 648 647 646 645 644 643 642 642 641 640 640 640 641 641 642 642 642 643 643 643 644 646 647 647 647 647 647 648 649 650 651 653 654 655 657 658 660 661 663 664 666 667 669 671 672 673 675 676 676
714 717 719 718 717 716 706 690 685 686 682 678 677 672 666 666 665 664 664 663 662 663 664 664 663 662 661 659 655 653 653 652 650 649 649 651 652 650 648 648 646 645 644 643 642 642 640 641 641 642 642 644 644 645 645 645 646 646 647 647 647 647 647 647 648 649 650 651 653 654 655 656 658 659 660 661 662 663 665 666 667 668 669 670 671 671
715 717 719 718 716 716 709 694 689 692 688 681 679 676 670 668 666 663 662 659 658 662 664 662 662 661 661 660 658 654 654 654 652 649 649 651 651 650 649 648 647 646 645 643 643 642 641 641 642 642 643 644 645 646 647 647 648 648 648 648 649 648 648 648 649 649 650 651 653 654 654 656 656 657 658 659 660 661 661 662 663 664 663 663 664 665
718 719 719 717 716 714 707 695 692 695 692 685 680 676 672 669 665 662 659 655 656 663 665 662 661 661 662 662 659 654 654 656 654 650 649 650 650 650 650 649 647 646 645 645 644 643 642 642 643 644 645 646 647 648 648 648 649 649 649 649 649 649 649 649 650 650 651 652 653 654 654 655 655 656 657 658 658 659 659 659 660 660 659 659 660 661
719 718 715 717 720 714 703 693 690 693 691 685 680 676 672 667 662 659 656 654 658 665 667 663 662 662 663 664 661 656 655 656 656 654 652 651 651 651 651 650 648 647 647 647 646 646 645 645 646 646 647 648 648 648 648 649 649 650 650 650 649 649 649 650 650 652 652 653 654 655 655 655 655 656 656 657 657 657 657 657 658 658 657 657 657 658
715 712 709 713 711 700 691 688 689 692 691 685 678 675 671 664 658 657 656 656 660 666 668 665 663 663 665 666 663 658 656 657 658 657 654 652 652 652 651 651 650 649 648 647 646 645 644 644 644 645 645 647 648 648 648 649 650 650 651 651 650 650 650 650 651 653 653 654 655 655 655 655 655 655 656 656 656 656 656 655 655 655 655 655 655 654
Wind_Speed
7 6 9 11 9 10 11 12 11 3 2 7 8 8 9 8 9 7 4 3 2 5 7 7 8 11 9 5 10 12 13 13 12 12 12 13 14 14 15 16 16 17 15 16 21 24 24 25 24 23 21 22 25 25 25 26 26 27 27 26 26 26 25 25 23 22 22 21 21 20 19 18 17 17 17 17 20 22 23 23 21 20 19 18 18 17
7 11 13 11 8 8 10 11 11 8 7 7 7 7 7 9 8 5 5 5 3 5 7 7 10 12 9 6 10 12 14 15 15 15 16 17 16 14 16 18 17 14 12 14 18 22 24 24 24 24 23 25 27 27 28 29 29 28 28 28 28 27 27 28 28 26 24 23 22 20 19 18 17 17 18 16 17 20 22 23 22 20 19 19 18 18
8 12 12 11 8 8 10 11 12 14 12 9 8 7 8 8 6 5 6 6 5 5 7 8 11 12 8 5 10 14 15 15 17 18 18 18 17 15 17 17 16 14 13 15 17 20 24 25 25 25 25 27 27 28 29 28 28 28 29 29 28 29 30 30 32 31 27 25 23 21 19 18 16 15 17 17 16 18 21 23 21 20 20 19 19 19
9 9 9 13 11 11 11 11 13 13 11 10 9 9 10 7 5 6 3 1 3 4 6 7 9 9 6 4 8 13 14 13 16 18 16 15 16 16 17 15 15 16 16 17 17 19 22 24 26 26 27 27 27 27 28 28 28 29 30 31 30 31 32 33 35 33 29 26 24 21 19 19 17 15 17 20 18 16 20 23 23 22 21 20 20 19
8 2 9 16 14 16 13 10 13 11 9 12 12 12 11 7 5 4 1 3 5 5 5 6 8 8 5 7 7 9 11 11 13 16 15 14 15 14 14 13 14 16 16 17 18 18 20 23 25 27 27 27 28 29 29 29 29 29 31 32 32 32 33 37 36 31 27 25 23 20 17 18 18 16 16 19 17 16 20 23 23 23 23 21 21 20
10 3 10 17 16 18 16 11 14 13 9 10 14 15 11 5 5 3 1 4 6 6 2 1 7 6 3 6 6 5 9 12 12 14 16 14 14 14 14 14 16 16 15 16 17 18 19 22 24 26 27 28 28 29 29 29 29 29 30 32 34 33 34 36 34 29 28 27 25 23 20 19 19 18 17 18 17 17 21 22 21 23 23 22 22 21
7 7 10 15 16 19 17 13 14 14 10 8 9 11 8 5 6 6 5 4 5 6 1 1 7 6 2 5 6 5 9 12 12 14 16 14 14 15 14 14 15 15 16 16 17 18 18 21 23 25 28 29 29 29 29 28 29 30 30 32 35 35 34 34 30 29 29 28 27 27 25 23 22 20 19 19 19 19 23 24 23 24 24 22 22 22
8 12 11 13 14 16 15 13 13 15 12 6 5 9 10 9 9 9 7 7 6 6 5 5 7 8 8 7 5 6 9 10 13 15 15 16 16 16 16 16 16 16 16 16 17 18 19 21 25 27 30 32 31 30 28 28 29 31 32 33 36 35 33 33 32 30 29 29 31 30 27 25 25 23 20 20 22 22 25 26 26 26 25 24 23 23
12 16 16 15 13 12 12 11 13 17 13 4 6 9 9 10 11 9 7 8 6 5 9 10 7 7 11 6 5 6 9 10 14 17 17 18 18 17 18 18 18 17 17 17 18 19 20 22 27 29 30 31 31 29 28 30 30 30 32 34 36 35 33 34 33 31 28 31 35 33 28 27 26 24 21 21 23 24 25 26 26 27 27 26 25 24
8 13 16 16 12 10 11 9 14 18 12 3 8 8 7 7 6 6 6 5 3 5 11 10 9 7 11 8 5 6 8 11 12 13 16 18 18 18 19 19 19 17 16 17 18 19 20 25 28 29 28 29 30 29 29 29 28 28 29 30 33 35 35 34 35 35 32 32 36 35 33 31 28 25 23 20 21 23 24 25 26 28 28 28 27 26
3 4 10 12 11 11 10 8 12 16 11 7 8 7 6 5 4 3 3 1 3 9 12 12 11 8 10 9 8 7 7 10 10 9 11 15 17 19 18 19 19 18 16 16 17 18 20 25 27 27 27 29 29 29 28 28 27 26 27 28 31 34 33 33 36 39 37 33 35 38 38 37 32 28 25 22 21 23 25 25 26 28 28 28 28 27
4 4 6 6 9 12 10 8 9 11 12 9 8 8 6 4 2 3 3 3 8 10 7 10 12 11 12 8 6 10 11 11 11 11 12 14 18 18 18 19 19 19 18 17 17 17 18 20 23 25 28 29 29 28 28 28 28 26 26 28 30 31 31 32 33 37 37 35 36 38 39 39 34 30 29 27 26 26 27 26 25 26 28 27 27 27
9 7 4 3 8 13 12 9 7 8 11 11 9 9 8 5 4 6 6 5 10 6 3 6 10 11 13 7 3 8 11 11 12 12 12 14 17 18 18 20 18 18 19 18 17 17 17 17 19 23 27 28 28 29 30 31 29 28 28 29 31 31 32 33 33 34 36 35 36 38 39 38 35 33 33 32 30 30 30 28 26 27 28 28 28 29
7 6 6 6 6 12 14 11 8 8 11 13 10 9 9 7 6 9 7 5 7 4 5 6 6 7 9 6 7 13 13 12 13 13 13 13 15 17 18 19 18 18 19 18 17 17 17 17 18 21 26 27 27 30 32 32 31 29 28 31 32 32 33 35 34 34 35 36 38 40 40 38 36 36 35 33 32 31 32 32 30 30 30 30 31 31
10 7 10 14 8 12 17 14 10 9 10 12 10 8 9 8 7 6 6 5 5 2 4 7 5 6 4 2 6 13 15 15 14 13 13 12 13 14 15 16 18 19 19 18 17 18 18 18 19 22 25 27 28 31 32 32 31 30 29 33 35 33 34 36 36 34 35 37 39 41 41 38 38 39 37 35 35 34 34 36 34 33 32 32 33 33
13 7 7 16 12 14 18 13 10 12 9 10 9 9 10 7 5 2 2 4 2 1 3 5 4 5 2 2 3 7 10 12 13 12 12 12 12 11 11 14 16 17 18 18 17 19 19 19 20 22 25 27 29 30 31 31 32 33 32 34 38 37 35 38 38 37 37 38 38 40 42 39 38 39 36 35 38 38 37 37 36 35 36 34 34 34
10 6 6 9 10 15 18 14 13 12 7 6 8 11 8 6 8 6 2 1 1 5 4 5 7 7 4 6 8 9 9 10 12 12 13 13 11 11 10 12 15 16 17 18 19 19 19 19 19 23 26 27 29 30 32 33 36 38 35 34 37 37 35 38 41 40 38 38 38 40 42 39 37 38 37 36 38 38 35 36 37 36 36 35 35 34
4 5 6 9 12 13 12 14 16 14 10 7 9 10 7 6 7 7 5 3 5 7 4 6 11 10 6 5 4 9 11 11 12 13 14 13 11 11 12 12 14 16 17 18 19 18 18 18 19 24 28 29 32 33 34 38 40 40 38 36 36 37 37 40 42 41 38 38 38 38 40 40 38 39 37 35 36 37 34 35 36 35 35 36 36 34
3 4 5 11 15 9 8 12 12 11 9 5 6 10 8 5 8 6 5 6 7 8 4 5 9 9 10 7 2 6 11 12 12 12 13 14 12 11 12 13 15 15 15 16 17 16 17 18 20 25 29 32 34 33 34 38 37 36 37 36 36 38 41 41 38 37 36 37 37 37 39 41 40 38 36 34 35 37 36 35 35 35 36 36 35 34
3 5 5 6 9 9 9 10 10 10 7 2 5 9 6 4 6 7 5 4 5 7 5 4 6 7 9 9 7 9 9 10 11 10 11 13 13 11 11 12 13 13 13 15 16 17 19 21 23 28 32 33 34 33 33 35 34 34 36 35 35 35 36 36 34 34 37 39 38 36 37 40 41 40 37 35 36 37 37 37 36 36 36 36 36 36
1 6 5 2 6 9 9 9 11 13 10 6 7 10 7 3 3 5 5 4 5 6 5 5 6 4 3 6 11 14 12 10 10 10 10 11 13 13 11 11 11 12 14 15 15 17 19 20 23 29 32 32 31 31 31 31 32 34 34 34 36 34 33 35 35 36 39 40 37 36 37 39 40 40 39 37 37 37 36 37 38 38 38 37 37 37
0 4 4 4 6 7 7 10 16 17 16 14 11 10 11 8 5 6 7 6 6 6 4 5 8 5 3 4 9 12 12 11 11 11 10 11 13 13 12 10 9 10 12 14 15 16 17 18 20 24 27 27 26 27 29 30 30 32 33 34 35 34 34 36 36 36 40 40 38 38 38 37 37 39 39 37 35 36 35 36 39 40 39 38 38 38
2 1 3 5 4 3 5 9 13 12 12 14 12 11 13 11 9 9 8 6 7 5 2 3 8 5 3 5 7 9 10 10 9 9 9 10 11 11 11 10 8 7 9 12 13 14 14 15 16 18 20 23 25 26 28 29 29 31 34 33 33 34 36 37 36 36 41 42 40 39 38 36 35 37 38 36 34 35 34 35 38 41 41 39 38 38
2 1 4 4 1 1 2 5 6 4 5 10 11 11 12 12 13 12 6 4 6 7 5 5 8 4 3 3 5 5 6 7 6 6 8 9 8 8 10 9 7 6 7 9 11 11 11 11 12 14 15 19 24 25 26 28 28 30 32 32 33 36 37 38 35 34 39 41 39 37 36 35 35 35 36 36 35 34 34 33 34 39 42 40 37 37
1 0 3 5 5 5 6 8 7 4 4 7 8 11 13 14 17 15 5 2 6 11 12 9 8 4 2 1 2 4 4 6 6 6 7 7 7 6 6 6 6 6 5 8 10 10 11 12 13 13 13 16 21 24 27 28 28 29 30 32 34 35 36 36 33 32 36 39 36 34 35 36 36 35 36 36 35 35 35 33 32 34 39 40 37 36
1 1 1 5 9 10 8 7 6 3 2 3 4 9 14 17 20 15 5 4 8 9 12 12 7 1 2 1 3 4 4 6 8 7 4 5 7 6 5 5 5 5 5 8 9 9 11 12 13 14 14 15 19 23 26 28 28 29 30 32 34 34 33 34 33 32 33 36 34 33 35 37 36 36 36 37 36 35 35 34 32 32 35 39 38 36
1 1 2 1 1 2 2 2 2 3 2 3 4 5 8 14 19 16 8 8 6 5 9 13 8 4 3 4 2 4 5 6 8 7 5 5 6 6 5 4 4 4 5 7 7 8 9 10 13 15 14 14 18 23 25 27 28 29 30 32 33 32 30 31 32 31 31 34 34 33 35 38 39 37 36 36 36 35 34 35 34 33 34 37 37 35
0 2 3 4 4 3 4 6 5 4 5 6 7 8 7 8 14 17 14 8 7 6 12 11 7 8 8 4 3 4 5 6 7 7 7 4 4 5 4 3 5 6 6 6 7 9 10 10 12 14 13 13 17 21 24 25 27 30 32 32 32 31 30 30 31 32 32 34 33 33 38 41 40 37 36 35 36 36 34 35 35 34 35 36 36 35
1 1 3 3 4 4 6 8 6 4 6 7 8 11 11 9 11 14 15 10 10 10 13 6 8 11 11 9 9 6 4 6 7 6 5 4 4 4 3 4 6 6 6 6 7 9 10 11 11 12 12 13 16 19 22 24 27 31 31 30 30 32 31 31 34 36 33 32 36 39 43 43 38 35 35 34 35 38 36 34 34 35 36 37 37 35
2 0 3 5 6 5 7 8 6 3 5 8 9 12 13 13 12 11 12 13 13 14 16 9 9 12 12 12 14 10 6 5 5 4 4 5 5 4 3 4 5 6 6 7 7 8 9 11 11 11 11 11 13 17 21 24 27 30 30 29 31 32 31 32 38 40 33 33 42 45 42 41 38 35 34 35 37 41 39 35 36 37 37 38 38 35
3 1 3 5 6 5 6 7 6 6 7 10 11 12 12 12 13 12 11 13 13 13 16 14 9 10 8 7 9 7 3 2 4 6 6 6 4 2 2 4 6 6 7 7 6 5 7 9 10 10 11 12 14 18 21 25 28 29 28 28 30 32 32 33 38 40 38 40 44 42 38 40 40 36 36 38 39 40 40 38 36 36 37 37 37 36
3 2 2 4 5 5 4 5 9 12 12 12 13 13 14 13 13 11 9 10 11 11 13 14 11 8 4 4 7 6 3 5 8 8 7 5 4 3 4 6 6 7 7 5 5 5 7 9 10 12 13 14 16 18 23 25 25 26 27 29 31 32 31 32 36 40 41 40 39 37 38 39 38 36 37 38 38 39 39 38 36 35 36 36 36 36
3 3 2 3 4 4 5 6 9 11 10 10 9 9 12 14 14 13 11 12 13 11 11 11 9 7 4 6 9 9 8 10 10 9 8 7 6 6 7 8 7 6 6 5 5 7 8 8 9 11 13 14 16 21 26 25 23 25 31 33 33 33 31 33 37 40 39 37 36 38 41 38 36 36 37 38 38 36 36 36 36 35 35 34 35 35
3 3 3 3 3 4 6 7 9 8 7 5 1 1 6 10 11 14 15 15 14 13 10 9 9 9 8 8 10 12 13 11 9 8 7 6 6 7 8 8 7 6 5 6 6 7 7 8 9 10 12 15 19 22 24 25 26 29 32 30 30 32 33 34 37 38 37 37 38 39 39 37 36 36 35 36 35 33 34 35 35 34 33 33 33 33
4 4 4 3 3 5 5 5 7 8 5 5 3 1 4 6 6 10 14 14 15 16 15 13 12 11 9 8 11 14 13 7 3 2 3 5 5 6 7 6 5 5 5 5 5 6 6 7 9 10 11 15 18 17 19 24 27 27 26 27 29 31 32 33 34 34 31 31 33 34 34 35 34 32 31 31 32 32 33 33 33 33 32 32 32 33
7 5 4 3 4 4 3 5 8 3 8 15 8 3 1 2 2 5 8 9 8 9 12 14 14 13 11 10 10 10 6 1 1 0 3 4 4 5 6 5 3 3 4 4 5 6 6 7 9 10 11 12 14 16 18 22 23 20 22 26 30 31 31 31 31 29 26 26 28 29 30 31 30 29 28 29 29 31 32 32 33 33 31 31 32 34
10 7 4 4 5 5 5 8 8 6 12 14 5 4 2 2 3 4 3 3 3 5 6 8 10 13 13 10 8 5 2 2 4 4 5 5 5 5 5 3 2 3 4 5 6 7 8 8 9 10 10 10 13 15 17 19 19 19 20 22 26 29 29 27 25 26 27 27 27 28 30 31 31 29 28 28 30 32 33 33 34 33 32 32 33 33
12 9 7 6 6 6 6 8 8 8 9 5 3 2 3 3 2 1 2 3 1 5 8 8 8 11 11 7 5 4 4 4 7 6 6 8 6 4 3 1 2 2 3 5 6 7 8 7 6 7 7 9 11 14 17 18 19 20 20 19 22 24 24 23 25 26 27 26 26 30 35 37 36 33 30 30 32 33 33 33 33 33 34 35 34 33
14 10 7 7 7 7 8 9 8 8 5 3 5 1 4 3 3 4 3 3 1 7 10 9 9 11 10 8 4 4 6 7 8 5 7 9 6 3 2 0 1 2 3 4 5 6 8 7 2 2 3 4 6 9 16 20 21 19 18 18 20 20 21 23 24 23 23 24 28 35 38 37 37 35 32 32 34 33 32 32 32 32 33 34 33 32
13 8 7 9 9 8 9 8 7 7 4 1 2 1 4 1 5 5 5 2 3 9 11 10 11 11 10 9 6 7 9 8 6 3 8 10 6 4 3 1 1 2 3 4 5 6 7 7 7 8 7 5 2 3 11 17 19 17 15 15 17 18 19 19 19 20 23 26 29 33 33 30 32 34 33 33 33 32 31 32 31 30 31 32 32 31
9 8 8 10 10 10 10 9 8 6 4 3 3 0 2 1 5 5 5 1 4 10 10 10 13 12 10 10 8 7 5 3 2 4 10 10 7 6 3 1 1 2 3 4 6 7 8 9 10 10 9 7 4 3 7 12 13 13 12 12 14 15 15 16 21 25 28 29 28 28 27 27 31 34 34 31 29 29 29 30 29 29 31 33 33 33
7 7 8 9 9 8 9 8 8 6 4 5 4 1 1 3 4 3 2 2 6 9 9 10 11 11 11 11 10 7 3 3 3 5 9 9 7 6 4 2 2 2 3 4 6 7 8 10 12 13 12 11 8 5 6 9 9 8 9 10 9 9 8 12 18 22 24 26 26 25 26 27 29 32 31 27 27 28 28 29 29 29 30 31 31 33
4 6 7 8 8 7 7 9 8 6 2 6 6 3 4 4 2 2 2 3 4 7 9 9 8 9 10 11 9 5 1 2 2 4 6 7 6 6 4 3 3 2 4 5 6 8 10 11 12 14 13 12 12 9 6 7 8 7 8 7 5 4 5 8 13 17 19 23 23 22 24 26 27 29 28 25 27 30 29 29 29 29 29 30 29 31
4 4 4 5 5 6 8 7 4 4 3 3 5 4 4 2 1 1 3 2 2 4 7 7 7 8 10 10 6 3 3 3 3 4 4 5 5 5 4 4 3 4 5 5 6 9 11 11 12 13 14 14 14 13 11 9 9 9 8 6 4 2 3 5 10 15 18 20 21 22 23 23 25 27 27 25 27 29 28 27 28 28 29 30 31 31
2 1 3 4 4 5 7 7 6 9 10 8 6 2 5 5 3 4 3 1 3 3 5 5 7 8 9 8 4 2 3 3 4 4 4 4 5 5 5 4 4 5 6 7 8 10 11 12 13 14 14 15 15 15 14 13 12 12 10 7 4 3 3 1 4 10 14 16 18 20 21 21 22 24 24 24 25 26 27 26 25 26 28 30 31 33
5 6 4 2 4 7 9 9 10 10 10 11 8 2 5 6 4 4 2 1 4 4 5 5 5 6 8 7 3 3 3 4 6 6 5 4 4 4 5 5 5 6 7 7 8 10 12 13 13 14 15 14 14 14 14 14 14 13 10 7 6 6 5 4 2 2 7 10 12 15 17 18 19 20 21 23 24 25 26 25 25 26 28 29 31 33
5 4 3 4 6 6 5 6 7 7 8 9 8 4 3 4 5 4 3 4 6 5 5 5 4 5 6 7 3 4 4 4 7 7 6 5 4 4 5 5 6 7 7 7 8 9 11 12 11 12 14 13 13 13 13 13 14 12 10 9 9 8 6 6 6 4 1 2 5 8 10 12 13 14 16 19 21 22 23 24 25 26 26 29 31 30
4 3 4 6 6 5 7 11 10 9 11 12 10 6 3 5 5 5 5 8 9 7 5 5 6 6 6 6 5 5 5 4 6 8 7 6 5 5 5 6 6 7 8 8 8 9 11 11 10 11 12 12 12 13 13 14 14 12 11 11 10 9 9 8 8 7 6 4 2 1 3 6 8 9 12 15 18 21 22 23 25 28 29 32 32 30
7 7 7 7 6 7 11 13 9 7 10 13 13 9 6 6 6 7 8 11 13 9 6 7 8 7 7 6 5 6 6 5 5 7 7 6 6 6 6 7 7 8 10 11 11 12 13 12 12 12 12 12 12 13 13 14 14 13 13 12 11 11 11 10 10 9 8 7 6 5 4 2 1 3 6 9 11 14 17 19 21 25 28 30 32 33
8 9 8 6 6 8 10 8 4 3 6 9 11 10 10 8 6 8 10 12 14 9 6 7 8 8 8 8 7 7 7 6 5 5 6 6 6 6 7 8 8 9 11 13 14 15 16 16 15 15 15 14 15 15 15 15 15 15 14 13 12 12 12 11 11 10 9 9 7 6 6 5 5 5 4 5 6 9 13 16 18 20 23 25 26 30
7 8 8 7 8 11 12 9 5 4 6 9 10 10 11 9 5 11 12 12 13 9 6 7 8 8 8 8 8 8 8 7 7 6 7 8 7 7 8 8 8 9 12 14 15 15 17 18 18 18 18 18 19 20 19 19 18 16 15 14 13 13 13 13 12 11 10 9 8 7 7 7 6 7 6 6 7 9 11 13 16 19 22 25 27 29
Wind_Direction
177 198 208 213 207 190 191 200 207 198 157 189 195 219 234 243 247 254 272 282 319 293 274 270 269 272 269 200 184 191 190 198 195 184 187 186 186 188 191 195 195 198 198 189 191 193 194 197 198 198 197 197 200 202 200 198 198 198 196 196 198 199 199 199 198 198 200 201 204 207 210 213 216 218 222 227 232 236 238 239 239 241 241 240 239 240
182 217 220 204 188 177 186 197 202 211 213 202 200 215 228 236 245 257 278 281 285 281 276 282 284 281 276 225 189 185 189 199 198 192 193 192 192 192 194 197 198 196 190 186 190 192 194 197 197 198 200 201 201 201 201 200 200 198 197 198 198 199 200 202 202 200 200 201 202 203 206 209 212 215 217 221 228 233 236 238 238 240 240 239 238 240
201 228 213 173 162 172 185 194 198 209 218 222 222 228 238 235 247 265 264 266 257 261 276 285 284 282 284 244 196 189 193 200 201 198 197 194 192 194 196 196 194 190 186 189 191 191 195 197 196 199 203 204 203 202 202 200 199 198 199 201 199 200 201 203 206 205 203 203 203 203 204 205 208 212 216 220 226 231 235 237 237 238 238 237 238 239
205 232 189 156 165 183 186 191 196 206 215 223 222 222 236 221 215 248 233 207 231 238 275 295 290 281 279 247 208 202 203 203 203 203 202 197 196 199 198 195 191 190 189 189 191 193 196 197 197 199 202 203 204 204 203 200 198 198 200 201 200 202 204 206 208 207 206 206 207 208 208 209 212 217 223 227 229 230 236 239 238 237 236 236 237 238
210 201 155 162 175 191 195 189 191 205 213 219 221 223 234 214 191 238 281 328 282 246 250 283 291 278 245 236 227 204 205 211 206 204 205 202 202 203 199 197 196 196 194 191 192 194 195 197 197 197 199 201 203 205 205 201 199 199 201 200 201 203 205 208 209 206 203 204 205 206 208 214 219 222 225 226 225 225 233 237 237 237 235 235 237 238
219 138 149 171 178 191 202 200 195 203 213 220 222 223 229 203 170 190 234 299 283 261 231 255 279 271 206 236 242 182 197 213 208 206 210 206 204 204 200 200 200 200 199 196 196 195 195 198 198 198 199 200 203 206 205 202 200 201 201 201 202 203 205 208 207 203 202 202 201 200 200 206 210 214 216 216 215 216 224 229 232 236 235 234 237 238
208 150 156 179 184 189 201 212 199 194 215 230 210 204 205 184 181 196 211 246 264 271 292 147 264 273 263 246 234 186 202 213 211 211 212 210 207 205 205 204 201 199 200 199 199 198 197 197 197 199 199 200 204 205 203 203 203 203 203 202 204 205 206 207 204 202 203 202 202 201 201 201 203 207 210 211 210 212 222 227 230 235 236 234 236 238
166 158 166 181 189 193 203 212 188 184 216 234 149 160 180 193 207 209 222 244 255 276 276 242 250 277 277 250 193 184 207 214 217 216 213 212 211 208 208 208 204 202 200 198 198 199 200 199 199 201 201 202 205 204 202 203 204 204 204 204 206 206 206 207 205 202 202 203 204 203 202 204 207 209 208 210 214 218 226 229 230 233 236 235 235 237
157 177 180 178 188 200 207 199 167 181 215 217 130 157 179 195 210 207 219 243 245 261 262 239 215 251 269 248 142 173 210 221 222 217 213 213 211 209 210 209 207 205 203 201 199 200 200 201 203 203 203 205 205 204 203 204 204 205 205 206 207 207 206 206 205 202 201 206 208 206 204 207 211 212 211 214 219 223 226 228 229 230 232 234 235 237
155 192 186 178 190 204 205 183 164 186 209 164 132 145 151 168 179 186 214 237 220 237 251 234 195 224 267 252 174 173 212 224 225 218 213 211 208 206 207 208 207 205 205 205 204 202 202 203 204 204 204 206 205 205 207 206 205 205 205 205 206 207 207 206 206 205 205 207 209 209 208 210 211 211 210 212 216 220 223 224 226 228 229 231 234 237
102 177 180 183 200 203 193 174 176 191 188 145 152 161 154 155 136 158 203 209 238 246 245 229 203 214 266 256 197 186 210 214 218 221 212 208 207 206 205 207 206 203 202 204 206 206 205 205 204 203 205 207 206 206 208 206 206 206 205 204 206 208 207 206 207 208 208 207 208 211 213 213 212 209 207 207 209 214 217 218 221 225 227 229 232 235
201 166 169 188 204 194 179 177 190 188 175 169 191 199 197 191 183 217 192 183 242 251 231 214 202 207 245 252 184 193 206 201 212 222 210 203 205 204 204 206 206 204 201 200 203 205 204 202 202 202 205 206 203 203 206 207 207 205 204 203 205 207 206 205 205 207 207 206 208 212 214 215 212 210 209 209 210 211 214 215 216 220 224 226 230 233
213 199 172 182 199 191 182 187 190 176 180 195 203 197 203 201 195 219 206 204 240 242 139 179 193 210 239 257 203 205 208 206 216 224 215 204 201 201 204 205 205 205 202 199 199 200 200 198 197 200 204 203 199 200 204 206 206 204 202 201 203 205 205 205 205 205 206 206 209 211 213 215 213 212 213 213 214 214 215 215 214 217 220 222 225 228
203 214 206 195 195 191 189 189 187 177 186 199 198 188 197 196 198 214 205 213 245 219 120 134 171 230 255 256 221 213 214 214 215 221 221 207 197 199 202 201 202 203 202 202 199 198 199 197 195 198 201 200 199 201 202 203 203 202 199 200 203 205 205 205 204 204 205 207 210 213 214 214 213 214 215 215 216 216 217 218 218 220 220 221 224 227
199 217 202 197 188 174 191 203 188 165 179 198 194 190 205 205 204 212 197 214 246 210 132 138 167 226 236 198 204 210 215 215 212 216 218 212 202 199 199 198 200 203 203 202 199 199 200 197 194 197 199 199 200 202 202 202 200 199 198 200 203 204 203 205 204 203 205 208 211 214 215 214 214 216 216 216 218 218 220 222 221 222 223 224 227 229
211 228 180 191 182 164 189 206 168 150 178 196 179 195 220 206 187 220 220 218 260 297 171 173 218 247 237 304 265 232 231 225 222 222 217 221 214 197 195 197 200 205 204 201 200 201 202 198 194 196 199 200 200 201 202 200 197 199 201 201 203 205 203 204 205 205 206 208 210 213 215 214 215 216 216 217 220 221 222 223 223 224 227 228 229 231
211 221 137 162 176 180 192 184 164 171 180 168 181 203 207 169 184 227 245 153 251 259 213 188 241 262 268 270 243 220 232 231 228 228 224 228 214 190 194 200 202 205 202 201 202 201 199 196 195 198 200 200 199 200 201 200 199 201 202 200 202 204 203 204 207 207 207 208 209 212 214 214 214 215 216 217 220 221 221 223 224 226 228 229 231 232
209 215 137 150 184 197 189 170 175 185 160 145 195 190 134 134 200 228 237 209 223 247 235 194 232 247 245 254 213 196 214 221 223 222 223 230 219 200 202 204 204 205 200 200 202 200 196 195 197 200 202 202 201 200 200 201 202 203 203 201 201 201 202 204 206 206 206 207 208 211 212 213 213 215 216 216 219 220 219 221 223 224 226 229 231 231
214 225 169 179 192 178 150 170 183 183 170 170 187 163 138 176 195 187 216 230 220 236 251 208 224 240 233 228 207 199 210 216 220 218 220 227 224 215 210 208 207 202 199 200 202 201 197 198 199 199 202 204 203 201 200 201 201 201 203 203 203 203 204 205 203 202 204 206 208 209 211 213 214 214 215 214 217 219 218 219 221 222 225 228 229 230
201 217 203 196 185 154 154 187 191 183 191 193 151 163 174 211 189 176 197 216 209 227 250 229 223 237 226 214 222 235 231 228 227 221 221 225 224 222 215 209 204 196 198 201 202 202 200 202 203 201 203 204 203 202 201 201 200 200 202 202 203 204 203 202 200 199 203 206 207 208 209 212 214 214 215 215 217 218 219 220 221 222 224 226 227 229
198 210 215 150 145 160 173 194 195 189 190 187 181 186 186 179 180 189 198 206 215 224 232 244 250 242 186 186 210 222 227 233 231 226 227 228 228 230 224 213 200 192 198 200 200 202 200 202 204 203 205 204 203 202 201 200 200 200 201 200 201 201 199 199 200 200 204 205 205 206 208 210 212 214 215 216 218 218 219 220 221 223 224 226 227 228
322 203 208 180 172 187 183 189 201 201 194 194 197 194 189 185 177 189 206 206 211 227 217 240 265 258 143 165 206 213 218 224 223 221 225 229 231 232 231 226 208 195 202 201 200 203 202 202 203 203 202 199 200 201 200 201 201 199 200 201 200 200 200 202 201 201 204 204 203 206 207 208 209 212 214 214 216 217 217 219 222 223 224 224 226 228
0 167 204 205 198 198 184 197 214 218 208 206 206 197 194 193 185 198 215 191 188 220 213 240 272 272 142 167 199 208 217 224 224 221 225 232 235 237 241 239 225 210 210 206 204 206 205 201 199 200 196 192 197 199 198 200 200 199 200 200 198 199 201 203 201 201 203 203 204 205 205 205 207 209 211 211 212 214 214 217 221 224 224 224 225 227
348 188 202 209 214 289 231 227 238 254 234 222 216 204 201 198 197 209 220 168 182 202 186 220 253 244 134 173 211 215 224 234 237 227 229 238 242 243 247 248 236 221 210 206 205 203 202 196 191 196 196 196 201 200 195 195 197 198 200 199 198 200 202 202 200 199 200 202 204 203 202 203 204 206 208 209 211 213 213 214 217 221 224 223 222 224
310 226 191 195 196 208 221 224 220 202 202 226 225 214 209 203 205 212 200 130 213 206 195 217 240 217 106 44 244 245 251 255 254 235 229 244 251 245 248 254 246 230 201 199 201 195 194 192 191 198 201 200 201 198 197 196 195 196 198 198 201 203 202 200 198 197 198 200 201 200 201 203 204 205 206 208 210 212 212 212 213 217 221 221 219 221
284 3 228 210 206 205 207 213 218 205 196 241 245 223 215 208 209 212 189 188 217 200 196 219 234 174 96 122 224 242 251 260 260 251 234 249 262 258 246 244 244 234 208 204 203 195 195 196 198 202 202 200 199 196 197 199 197 197 197 198 202 204 202 199 198 196 195 196 198 199 200 202 203 205 206 206 209 210 210 211 211 212 216 219 218 218
212 40 31 24 212 208 228 250 288 328 291 263 283 267 238 220 214 212 208 211 198 166 210 226 229 231 193 158 186 228 232 248 260 264 257 245 250 254 250 250 256 253 232 214 204 199 199 201 204 205 203 200 198 195 195 196 196 196 196 197 201 202 198 195 194 192 192 195 197 198 199 201 203 204 204 204 206 207 207 209 210 211 213 216 216 215
44 55 61 57 40 11 320 301 297 297 272 264 281 285 277 250 226 219 219 205 145 178 232 223 202 232 230 203 225 229 226 248 257 262 265 258 247 247 246 249 248 247 239 215 205 205 203 205 207 207 204 199 196 196 196 196 196 196 197 198 198 197 195 192 190 191 193 195 197 199 202 203 204 203 203 203 204 205 206 207 209 210 212 214 214 214
332 31 60 22 353 335 305 296 290 274 259 259 267 269 273 275 255 238 233 212 170 206 242 209 165 222 234 228 240 238 228 248 253 261 274 284 272 244 224 237 246 248 247 230 220 213 208 211 209 207 206 199 195 195 195 197 199 199 200 198 195 197 196 193 192 195 196 194 199 204 206 205 204 202 201 201 202 205 206 205 208 210 212 215 215 214
312 334 44 348 325 316 305 299 297 289 273 270 268 265 266 269 265 259 252 240 222 229 245 226 186 218 230 226 232 229 221 246 267 291 279 257 251 231 206 239 251 252 252 242 233 222 216 218 215 210 208 199 197 198 196 198 199 199 200 197 195 197 196 193 196 199 197 199 205 208 207 206 204 201 201 202 205 208 208 207 209 211 212 216 217 215
335 353 19 343 318 301 305 307 303 306 301 287 274 262 259 260 259 254 249 249 243 239 245 242 224 222 224 229 238 228 191 225 251 258 255 246 251 249 226 248 254 256 259 260 262 251 232 228 222 213 207 202 202 201 199 200 200 199 199 197 195 197 196 194 197 199 200 206 208 206 205 206 206 204 204 206 208 209 209 209 210 211 213 215 216 216
334 325 351 336 304 285 303 320 317 319 310 284 267 258 251 248 250 248 239 240 239 235 242 245 243 242 222 227 251 244 215 233 239 244 250 248 249 249 244 248 248 250 255 265 277 269 247 238 227 216 212 209 204 201 202 202 198 196 198 196 195 196 193 192 195 199 203 207 205 202 203 204 204 203 205 206 207 207 208 209 210 211 212 213 214 215
295 291 309 304 286 286 303 317 323 322 302 270 257 254 250 248 250 251 244 239 236 233 237 238 244 259 237 220 241 243 231 235 239 239 241 239 235 233 238 245 245 246 253 258 262 258 251 246 234 224 220 213 205 203 203 200 196 197 200 199 197 195 192 193 197 200 203 203 201 202 203 201 200 202 204 205 205 205 206 207 209 211 211 211 213 214
262 261 275 281 269 281 300 316 314 289 257 253 263 251 264 262 257 253 247 241 235 233 244 256 255 255 238 219 228 236 234 236 239 238 231 228 233 233 233 237 240 246 254 253 256 258 253 250 245 237 229 222 216 210 202 199 200 203 203 201 197 195 196 199 201 202 203 202 200 201 201 199 200 202 203 203 202 201 203 206 209 211 211 211 213 214
252 247 252 247 248 276 298 305 273 242 245 306 351 80 270 264 257 264 259 248 239 232 237 246 246 247 245 225 222 234 240 243 255 250 219 213 229 238 239 240 238 245 253 253 260 266 260 258 254 247 240 231 222 209 197 198 201 200 199 197 195 195 199 201 202 205 204 201 200 200 198 199 200 201 200 200 199 200 204 206 208 209 210 211 212 216
230 237 244 227 230 256 262 239 235 251 326 315 318 56 11 267 322 299 261 242 248 248 242 239 235 238 241 228 224 237 244 193 71 226 218 222 229 237 247 252 247 259 272 276 279 278 274 271 263 255 247 231 215 203 197 198 197 190 188 192 193 195 198 199 201 203 202 199 199 199 198 199 200 200 200 198 198 202 204 206 208 208 207 209 213 217
216 224 231 227 223 225 236 246 253 304 314 298 297 55 18 295 346 333 262 252 324 341 312 277 252 246 244 232 224 227 194 187 236 227 207 215 227 234 248 269 289 292 298 304 302 295 287 280 268 259 248 220 202 200 195 191 187 183 181 185 190 194 195 196 199 200 199 198 196 195 197 200 200 200 200 198 200 203 205 206 208 207 205 207 210 213
205 210 211 219 217 211 232 253 259 269 271 245 151 74 319 289 270 227 234 257 349 23 360 332 297 279 274 264 234 194 164 217 248 233 190 191 203 212 225 258 297 307 322 324 317 313 311 301 272 247 228 202 194 195 192 187 183 181 180 181 187 190 192 197 201 200 198 196 193 196 201 204 203 202 200 201 203 205 205 206 208 206 206 208 211 213
205 211 217 230 232 214 219 235 240 243 241 149 130 201 319 312 191 192 237 240 47 10 349 331 316 305 301 301 274 190 180 220 246 231 171 166 170 171 174 187 3 6 3 352 342 340 342 344 0 126 142 160 175 188 191 187 183 181 182 182 184 187 193 201 203 199 195 194 197 203 206 204 203 202 202 204 206 206 205 206 207 207 207 210 213 214
201 209 216 226 236 228 224 236 240 238 246 123 135 271 331 348 167 204 255 238 28 348 332 325 319 309 304 307 283 217 210 230 250 200 138 138 138 133 133 108 36 33 23 17 12 11 14 22 48 68 64 55 59 181 186 183 180 181 182 179 182 191 199 203 200 196 197 199 202 207 207 202 201 203 205 207 208 206 207 207 208 208 209 211 214 216
200 209 213 219 228 229 228 239 248 244 235 211 195 234 10 151 184 226 253 245 336 327 329 330 320 309 303 299 272 234 237 289 2 97 119 125 129 128 129 129 74 45 25 24 26 39 54 55 58 64 57 43 44 133 170 176 179 180 176 173 185 197 202 203 203 204 205 205 204 205 205 204 204 206 208 210 208 207 209 211 210 210 210 212 214 216
200 208 215 221 226 225 229 239 254 261 225 170 167 139 144 204 229 253 270 286 305 320 335 331 317 315 311 294 270 256 289 15 51 96 113 120 127 131 134 133 113 78 52 47 41 57 77 71 64 63 54 43 44 74 143 165 167 164 165 169 182 196 202 203 206 207 207 206 205 206 206 206 207 208 209 209 207 206 209 211 211 212 213 214 215 218
211 221 224 220 216 220 233 233 239 262 218 148 157 178 194 215 263 345 312 296 318 334 335 327 317 322 320 301 277 256 223 96 96 103 112 121 128 128 130 133 129 96 69 63 54 65 79 75 66 59 52 46 43 47 86 133 135 132 141 141 140 165 191 204 207 207 207 208 208 208 208 209 210 210 210 208 207 207 210 211 211 212 213 213 214 219
201 214 240 234 213 214 223 218 227 309 322 199 205 206 182 176 113 146 256 286 26 359 335 327 321 325 328 314 287 220 159 134 118 108 116 128 128 127 129 129 124 104 81 70 66 71 76 76 70 61 53 51 50 48 56 79 96 100 100 88 79 123 166 198 208 206 207 210 212 213 213 214 213 213 212 211 210 211 214 214 212 214 215 215 216 220
200 316 298 265 247 250 254 260 293 317 315 293 273 213 144 151 163 179 217 271 51 21 346 326 318 330 336 322 293 171 140 127 123 119 124 128 123 124 126 115 99 94 83 76 78 80 81 80 76 68 58 51 51 53 55 61 75 79 72 60 53 68 81 115 206 208 209 212 214 216 217 218 217 216 215 215 213 214 217 217 216 218 220 221 222 224
310 341 339 287 296 306 291 269 264 276 288 290 286 245 145 153 164 170 177 100 61 30 355 327 325 345 344 325 304 139 130 124 120 114 109 113 112 109 109 98 86 82 76 75 80 85 88 88 83 78 71 59 52 54 54 55 62 63 56 48 47 50 56 61 76 192 216 220 221 221 221 222 222 221 220 220 218 219 221 221 220 222 223 223 225 227
299 340 347 292 294 307 294 265 256 266 276 275 268 248 176 165 160 156 144 96 67 35 2 350 358 14 6 348 7 102 118 120 119 113 102 94 90 91 94 89 83 79 72 71 78 84 89 90 84 80 79 71 63 62 60 59 59 57 52 46 41 42 48 55 61 67 79 237 239 237 233 231 231 230 227 224 223 224 226 225 225 227 227 227 228 229
291 342 334 288 268 262 270 279 292 302 293 277 261 249 212 175 154 130 110 88 68 41 14 18 25 35 36 14 17 66 89 100 111 113 107 97 88 85 86 84 82 80 77 74 75 80 83 81 79 78 75 71 69 68 67 66 63 61 59 56 51 51 53 53 56 61 59 54 44 307 256 247 245 244 241 236 233 232 232 231 231 232 232 230 229 228
276 291 289 278 279 279 274 276 283 290 281 267 253 247 233 195 154 117 95 80 66 41 16 32 35 33 36 20 10 45 63 61 78 98 104 99 89 83 82 83 81 79 79 78 77 79 83 83 84 82 78 74 74 72 69 68 66 62 59 58 58 60 61 61 63 63 61 59 57 54 48 21 325 285 264 257 255 251 247 243 241 242 243 240 234 231
258 263 259 262 275 269 259 258 256 259 270 261 241 228 226 215 155 99 79 73 68 47 18 38 46 37 32 20 8 31 46 30 25 57 79 79 74 75 80 84 85 83 83 86 87 87 88 89 88 85 81 77 74 72 70 68 66 61 56 56 60 64 67 72 73 68 64 60 56 55 57 57 48 29 358 320 309 298 282 270 264 262 264 262 254 246
229 244 245 245 255 257 258 266 275 283 296 287 263 235 229 226 129 87 76 75 74 56 28 41 50 44 35 19 9 24 34 17 10 37 63 64 58 55 56 60 70 78 80 82 84 82 80 79 77 74 71 68 66 65 64 62 60 56 52 53 59 66 73 79 80 75 70 65 60 57 57 56 49 37 23 4 347 332 313 299 289 281 276 273 271 268